sat.trackr.live / text

‹ back to catalog

UNKNOWN

NORAD 87129

UNKNOWN UNKNOWN UNKNOWN

§ Identity

Operator
Country
Launch date
Launch site
Launch vehicle
Mass (kg)
RCS (m²)

External: N2YO · Heavens-Above

§ Orbital elements

Epoch: 2026-09-16T05:19:28.287552Z

Period
115.86 min
Inclination
102.2621°
Eccentricity
0.0031186
Mean motion
12.42921997 rev/d
Perigee alt
1,469.7 km
Apogee alt
1,518.8 km
Semi-major
7,872.4 km
B*
1.2348e-3
RAAN
358.4799°
Arg perigee
286.7817°
Mean anomaly
72.9827°
Rev number
58,114

§ Raw data

UNKNOWN1 87129U          26259.22185518  .00000125  00000+0  12348-2 0  99902 87129 102.2621 358.4799 0031186 286.7817  72.9827 12.42921997581146

JSON: /api/v1/satellites/87129 · /tle

For live sub-satellite position, see the globe view (requires WebGL).

§ Visibility from observer

Set your observer location to see the next 7 days of passes ≥ 10°. The values pass through the URL so the page stays shareable.

No JS? Fill the form by hand. The geolocation button needs JavaScript.